Time,TemperatureF,DewpointF,PressureIn,WindDirection,WindDirectionDegrees,WindSpeedMPH,WindSpeedGustMPH,Humidity,HourlyPrecipIn,Conditions,Clouds,dailyrainin,SoftwareType,DateUTC
2013-11-10 00:00:00,44.5,28.5,29.94,NW,305,10.6,10.6,53,0.00,,---,0.00,VWS V14.01,2013-11-10 05:00:00,
2013-11-10 00:01:00,44.5,28.5,29.94,NW,305,9.3,10.6,53,0.00,,---,0.00,VWS V14.01,2013-11-10 05:01:00,
2013-11-10 00:02:00,44.4,28.3,29.94,West,260,10.6,10.6,53,0.00,,---,0.00,VWS V14.01,2013-11-10 05:02:00,
2013-11-10 00:03:00,44.4,28.3,29.94,North,350,18.2,18.2,53,0.00,,---,0.00,VWS V14.01,2013-11-10 05:03:00,
2013-11-10 00:08:00,44.0,28.0,29.94,NW,305,24.5,24.5,53,0.00,,---,0.00,VWS V14.01,2013-11-10 05:08:00,
2013-11-10 00:10:00,44.0,28.0,29.94,West,260,10.6,24.5,53,0.00,,---,0.00,VWS V14.01,2013-11-10 05:10:00,
2013-11-10 00:15:00,43.8,28.3,29.94,NW,305,12.9,12.9,54,0.00,,---,0.00,VWS V14.01,2013-11-10 05:15:00,
2013-11-10 00:20:00,43.6,28.1,29.94,NW,305,15.2,15.2,54,0.00,,---,0.00,VWS V14.01,2013-11-10 05:20:00,
2013-11-10 00:25:00,43.5,27.9,29.94,NW,305,15.9,15.9,54,0.00,,---,0.00,VWS V14.01,2013-11-10 05:25:00,
2013-11-10 00:30:00,43.5,27.9,29.94,NW,305,6.0,6.0,54,0.00,,---,0.00,VWS V14.01,2013-11-10 05:30:00,
2013-11-10 00:35:00,43.6,27.6,29.94,WNW,282,15.2,15.2,53,0.00,,---,0.00,VWS V14.01,2013-11-10 05:35:00,
2013-11-10 00:40:00,43.6,27.6,29.94,South,170,4.6,14.9,53,0.00,,---,0.00,VWS V14.01,2013-11-10 05:40:00,
2013-11-10 00:45:00,43.6,27.2,29.94,WSW,238,5.0,19.2,52,0.00,,---,0.00,VWS V14.01,2013-11-10 05:45:00,
2013-11-10 00:50:00,43.6,26.7,29.94,NW,305,10.9,12.9,51,0.00,,---,0.00,VWS V14.01,2013-11-10 05:50:00,
2013-11-10 00:55:00,43.5,27.0,29.94,West,260,8.3,11.3,52,0.00,,---,0.00,VWS V14.01,2013-11-10 05:55:00,
2013-11-10 01:00:00,43.6,27.2,29.94,West,260,5.0,5.0,52,0.00,,---,0.00,VWS V14.01,2013-11-10 06:00:00,
2013-11-10 01:05:00,43.5,27.0,29.94,NW,305,14.9,14.9,52,0.00,,---,0.00,VWS V14.01,2013-11-10 06:05:00,
2013-11-10 01:10:00,43.5,27.0,29.94,NW,305,3.3,3.3,52,0.00,,---,0.00,VWS V14.01,2013-11-10 06:10:00,
2013-11-10 01:15:00,43.3,26.9,29.94,SW,215,6.3,7.0,52,0.00,,---,0.00,VWS V14.01,2013-11-10 06:15:00,
2013-11-10 01:20:00,43.1,27.1,29.94,West,260,5.0,7.0,53,0.00,,---,0.00,VWS V14.01,2013-11-10 06:20:00,
2013-11-10 01:25:00,43.1,27.1,29.94,West,260,11.9,11.9,53,0.00,,---,0.00,VWS V14.01,2013-11-10 06:25:00,
2013-11-10 01:30:00,43.1,27.1,29.94,NW,305,8.6,8.6,53,0.00,,---,0.00,VWS V14.01,2013-11-10 06:30:00,
2013-11-10 01:35:00,43.1,27.1,29.94,NW,305,3.0,5.6,53,0.00,,---,0.00,VWS V14.01,2013-11-10 06:35:00,
2013-11-10 01:40:00,42.9,27.0,29.94,NW,305,8.6,8.6,53,0.00,,---,0.00,VWS V14.01,2013-11-10 06:40:00,
2013-11-10 01:45:00,42.9,27.0,29.94,NW,305,12.6,15.2,53,0.00,,---,0.00,VWS V14.01,2013-11-10 06:45:00,
2013-11-10 01:50:00,42.9,27.0,29.94,West,260,15.9,15.9,53,0.00,,---,0.00,VWS V14.01,2013-11-10 06:50:00,
2013-11-10 01:55:00,42.9,27.0,29.94,West,260,14.6,14.6,53,0.00,,---,0.00,VWS V14.01,2013-11-10 06:55:00,
2013-11-10 02:01:00,42.9,27.0,29.94,NW,305,4.3,14.9,53,0.00,,---,0.00,VWS V14.01,2013-11-10 07:01:00,
2013-11-10 02:06:00,42.9,27.0,29.94,North,350,5.0,6.0,53,0.00,,---,0.00,VWS V14.01,2013-11-10 07:06:00,
2013-11-10 02:11:00,42.9,27.0,29.94,NW,305,3.6,8.3,53,0.00,,---,0.00,VWS V14.01,2013-11-10 07:11:00,
2013-11-10 02:16:00,42.9,27.0,29.94,West,260,12.9,21.9,53,0.00,,---,0.00,VWS V14.01,2013-11-10 07:16:00,
2013-11-10 02:21:00,42.9,27.0,29.94,NW,305,11.3,15.2,53,0.00,,---,0.00,VWS V14.01,2013-11-10 07:21:00,
2013-11-10 02:26:00,42.9,27.0,29.94,West,260,5.0,22.9,53,0.00,,---,0.00,VWS V14.01,2013-11-10 07:26:00,
2013-11-10 02:31:00,42.9,27.0,29.94,West,260,7.0,7.0,53,0.00,,---,0.00,VWS V14.01,2013-11-10 07:31:00,
2013-11-10 02:36:00,42.9,27.0,29.94,NW,305,14.9,14.9,53,0.00,,---,0.00,VWS V14.01,2013-11-10 07:36:00,
2013-11-10 02:41:00,42.7,26.8,29.94,West,260,24.8,24.8,53,0.00,,---,0.00,VWS V14.01,2013-11-10 07:41:00,
2013-11-10 02:46:00,42.6,26.6,29.94,West,260,2.3,10.9,53,0.00,,---,0.00,VWS V14.01,2013-11-10 07:46:00,
2013-11-10 02:51:00,42.6,26.6,29.94,West,260,8.6,9.6,53,0.00,,---,0.00,VWS V14.01,2013-11-10 07:51:00,
2013-11-10 02:56:00,42.2,26.3,29.97,SW,215,5.6,21.5,53,0.00,,---,0.00,VWS V14.01,2013-11-10 07:56:00,
2013-11-10 03:01:00,42.0,26.6,29.97,West,260,12.6,25.2,54,0.00,,---,0.00,VWS V14.01,2013-11-10 08:01:00,
2013-11-10 03:06:00,41.8,26.0,29.97,North,350,5.6,5.6,53,0.00,,---,0.00,VWS V14.01,2013-11-10 08:06:00,
2013-11-10 03:11:00,41.7,25.8,29.97,NW,305,5.3,13.2,53,0.00,,---,0.00,VWS V14.01,2013-11-10 08:11:00,
2013-11-10 03:16:00,41.7,25.8,29.97,WNW,282,10.9,10.9,53,0.00,,---,0.00,VWS V14.01,2013-11-10 08:16:00,
2013-11-10 03:21:00,41.5,25.2,29.97,West,260,11.3,11.3,52,0.00,,---,0.00,VWS V14.01,2013-11-10 08:21:00,
2013-11-10 03:26:00,41.3,25.0,29.97,West,260,13.2,14.6,52,0.00,,---,0.00,VWS V14.01,2013-11-10 08:26:00,
2013-11-10 03:31:00,41.1,24.9,29.97,NW,305,8.9,10.3,52,0.00,,---,0.00,VWS V14.01,2013-11-10 08:31:00,
2013-11-10 03:36:00,41.1,24.4,29.97,West,260,15.9,15.9,51,0.00,,---,0.00,VWS V14.01,2013-11-10 08:36:00,
2013-11-10 03:41:00,41.1,24.4,29.97,West,260,9.3,11.9,51,0.00,,---,0.00,VWS V14.01,2013-11-10 08:41:00,
2013-11-10 03:46:00,40.9,24.2,29.97,SW,215,10.9,11.3,51,0.00,,---,0.00,VWS V14.01,2013-11-10 08:46:00,
2013-11-10 03:51:00,40.9,24.2,29.97,SW,215,12.9,12.9,51,0.00,,---,0.00,VWS V14.01,2013-11-10 08:51:00,
2013-11-10 03:56:00,40.9,24.2,29.97,West,260,9.3,9.3,51,0.00,,---,0.00,VWS V14.01,2013-11-10 08:56:00,
2013-11-10 04:01:00,40.9,23.8,29.97,WNW,282,8.3,8.3,50,0.00,,---,0.00,VWS V14.01,2013-11-10 09:01:00,
2013-11-10 04:06:00,40.9,24.2,29.97,SE,125,8.3,11.3,51,0.00,,---,0.00,VWS V14.01,2013-11-10 09:06:00,
2013-11-10 04:11:00,40.9,24.2,29.97,NW,305,4.3,4.3,51,0.00,,---,0.00,VWS V14.01,2013-11-10 09:11:00,
2013-11-10 04:16:00,40.9,24.2,29.97,NW,305,4.0,4.0,51,0.00,,---,0.00,VWS V14.01,2013-11-10 09:16:00,
2013-11-10 04:21:00,40.9,24.2,29.97,NW,305,8.6,15.2,51,0.00,,---,0.00,VWS V14.01,2013-11-10 09:21:00,
2013-11-10 04:26:00,40.9,24.2,30.00,North,350,8.6,8.6,51,0.00,,---,0.00,VWS V14.01,2013-11-10 09:26:00,
2013-11-10 04:31:00,40.9,24.2,30.00,NW,305,7.3,8.3,51,0.00,,---,0.00,VWS V14.01,2013-11-10 09:31:00,
2013-11-10 04:36:00,40.9,24.2,30.00,East,80,6.0,18.2,51,0.00,,---,0.00,VWS V14.01,2013-11-10 09:36:00,
2013-11-10 04:41:00,40.9,24.7,30.00,NE,35,7.3,8.3,52,0.00,,---,0.00,VWS V14.01,2013-11-10 09:41:00,
2013-11-10 04:46:00,40.9,24.7,30.00,West,260,4.0,4.0,52,0.00,,---,0.00,VWS V14.01,2013-11-10 09:46:00,
2013-11-10 04:52:00,40.8,24.5,30.00,NW,305,6.3,10.6,52,0.00,,---,0.00,VWS V14.01,2013-11-10 09:52:00,
2013-11-10 04:57:00,40.8,24.5,30.00,NW,305,7.3,7.3,52,0.00,,---,0.00,VWS V14.01,2013-11-10 09:57:00,
2013-11-10 05:02:00,40.9,24.7,30.00,West,260,13.9,13.9,52,0.00,,---,0.00,VWS V14.01,2013-11-10 10:02:00,
2013-11-10 05:07:00,40.9,24.7,30.00,North,350,9.6,9.6,52,0.00,,---,0.00,VWS V14.01,2013-11-10 10:07:00,
2013-11-10 05:12:00,40.9,24.7,30.00,West,260,5.6,13.6,52,0.00,,---,0.00,VWS V14.01,2013-11-10 10:12:00,
2013-11-10 05:17:00,40.8,24.5,30.00,West,260,7.9,7.9,52,0.00,,---,0.00,VWS V14.01,2013-11-10 10:17:00,
2013-11-10 05:22:00,40.8,24.5,30.00,West,260,6.0,6.0,52,0.00,,---,0.00,VWS V14.01,2013-11-10 10:22:00,
2013-11-10 05:27:00,40.8,24.5,30.00,NW,305,9.6,11.9,52,0.00,,---,0.00,VWS V14.01,2013-11-10 10:27:00,
2013-11-10 05:32:00,40.6,24.4,30.00,West,260,8.6,12.9,52,0.00,,---,0.00,VWS V14.01,2013-11-10 10:32:00,
2013-11-10 05:37:00,40.6,24.4,30.00,WNW,282,4.3,7.9,52,0.00,,---,0.00,VWS V14.01,2013-11-10 10:37:00,
2013-11-10 05:42:00,40.6,24.4,30.03,NW,305,6.3,14.2,52,0.00,,---,0.00,VWS V14.01,2013-11-10 10:42:00,
2013-11-10 05:47:00,40.6,24.4,30.03,NW,305,9.6,9.6,52,0.00,,---,0.00,VWS V14.01,2013-11-10 10:47:00,
2013-11-10 05:52:00,40.6,24.8,30.03,West,260,8.9,8.9,53,0.00,,---,0.00,VWS V14.01,2013-11-10 10:52:00,
2013-11-10 05:57:00,40.6,24.8,30.03,NW,305,9.6,9.6,53,0.00,,---,0.00,VWS V14.01,2013-11-10 10:57:00,
2013-11-10 06:02:00,40.6,24.8,30.03,ESE,102,4.3,4.3,53,0.00,,---,0.00,VWS V14.01,2013-11-10 11:02:00,
2013-11-10 06:07:00,40.6,24.8,30.03,NW,305,15.2,15.2,53,0.00,,---,0.00,VWS V14.01,2013-11-10 11:07:00,
2013-11-10 06:12:00,40.6,24.8,30.03,West,260,11.9,11.9,53,0.00,,---,0.00,VWS V14.01,2013-11-10 11:12:00,
2013-11-10 06:17:00,40.4,24.6,30.03,NW,305,5.0,5.0,53,0.00,,---,0.00,VWS V14.01,2013-11-10 11:17:00,
2013-11-10 06:22:00,40.4,24.6,30.03,North,350,3.6,3.6,53,0.00,,---,0.00,VWS V14.01,2013-11-10 11:22:00,
2013-11-10 06:27:00,40.4,25.1,30.06,NW,305,2.3,11.6,54,0.00,,---,0.00,VWS V14.01,2013-11-10 11:27:00,
2013-11-10 06:32:00,40.4,25.1,30.06,NW,305,4.0,4.0,54,0.00,,---,0.00,VWS V14.01,2013-11-10 11:32:00,
2013-11-10 06:37:00,40.4,25.1,30.06,NW,305,16.2,16.2,54,0.00,,---,0.00,VWS V14.01,2013-11-10 11:37:00,
2013-11-10 06:42:00,40.4,25.1,30.06,West,260,11.9,11.9,54,0.00,,---,0.00,VWS V14.01,2013-11-10 11:42:00,
2013-11-10 06:47:00,40.4,25.1,30.06,West,260,9.6,9.6,54,0.00,,---,0.00,VWS V14.01,2013-11-10 11:47:00,
2013-11-10 06:52:00,40.4,25.1,30.06,West,260,9.6,11.3,54,0.00,,---,0.00,VWS V14.01,2013-11-10 11:52:00,
2013-11-10 06:57:00,40.4,25.1,30.06,West,260,3.0,15.2,54,0.00,,---,0.00,VWS V14.01,2013-11-10 11:57:00,
2013-11-10 07:02:00,40.4,25.1,30.06,NW,305,4.6,4.6,54,0.00,,---,0.00,VWS V14.01,2013-11-10 12:02:00,
2013-11-10 07:07:00,40.4,25.1,30.06,West,260,3.0,5.6,54,0.00,,---,0.00,VWS V14.01,2013-11-10 12:07:00,
2013-11-10 07:12:00,40.4,25.1,30.06,West,260,3.0,3.0,54,0.00,,---,0.00,VWS V14.01,2013-11-10 12:12:00,
2013-11-10 07:17:00,40.4,25.1,30.06,West,260,4.6,12.9,54,0.00,,---,0.00,VWS V14.01,2013-11-10 12:17:00,
2013-11-10 07:22:00,40.4,25.1,30.06,NW,305,2.3,2.3,54,0.00,,---,0.00,VWS V14.01,2013-11-10 12:22:00,
2013-11-10 07:27:00,40.4,25.1,30.09,West,260,11.9,13.6,54,0.00,,---,0.00,VWS V14.01,2013-11-10 12:27:00,
2013-11-10 07:32:00,40.4,25.1,30.09,NW,305,4.3,4.6,54,0.00,,---,0.00,VWS V14.01,2013-11-10 12:32:00,
2013-11-10 07:37:00,40.4,25.1,30.09,North,350,6.3,6.3,54,0.00,,---,0.00,VWS V14.01,2013-11-10 12:37:00,
2013-11-10 07:42:00,40.4,25.1,30.09,West,260,6.0,6.0,54,0.00,,---,0.00,VWS V14.01,2013-11-10 12:42:00,
2013-11-10 07:48:00,40.4,25.1,30.09,North,350,5.6,5.6,54,0.00,,---,0.00,VWS V14.01,2013-11-10 12:48:00,
2013-11-10 07:53:00,40.4,25.1,30.09,North,350,3.6,3.6,54,0.00,,---,0.00,VWS V14.01,2013-11-10 12:53:00,
2013-11-10 07:58:00,40.4,25.1,30.09,NE,35,3.6,6.0,54,0.00,,---,0.00,VWS V14.01,2013-11-10 12:58:00,
2013-11-10 08:03:00,40.4,25.1,30.09,WNW,282,4.0,5.6,54,0.00,,---,0.00,VWS V14.01,2013-11-10 13:03:00,
2013-11-10 08:08:00,40.4,25.1,30.09,NW,305,7.9,9.6,54,0.00,,---,0.00,VWS V14.01,2013-11-10 13:08:00,
2013-11-10 08:13:00,40.6,25.2,30.09,NW,305,7.3,8.3,54,0.00,,---,0.00,VWS V14.01,2013-11-10 13:13:00,
2013-11-10 08:18:00,40.6,25.2,30.09,North,350,5.0,15.9,54,0.00,,---,0.00,VWS V14.01,2013-11-10 13:18:00,
2013-11-10 08:23:00,40.6,25.2,30.09,North,350,4.0,5.3,54,0.00,,---,0.00,VWS V14.01,2013-11-10 13:23:00,
2013-11-10 08:28:00,40.6,25.2,30.09,NW,305,5.3,5.3,54,0.00,,---,0.00,VWS V14.01,2013-11-10 13:28:00,
2013-11-10 08:33:00,40.6,25.2,30.09,NW,305,5.0,7.3,54,0.00,,---,0.00,VWS V14.01,2013-11-10 13:33:00,
2013-11-10 08:38:00,40.8,25.4,30.09,NW,305,3.6,5.0,54,0.00,,---,0.00,VWS V14.01,2013-11-10 13:38:00,
2013-11-10 08:43:00,40.8,25.4,30.09,WNW,282,18.2,18.2,54,0.00,,---,0.00,VWS V14.01,2013-11-10 13:43:00,
2013-11-10 08:48:00,40.8,25.4,30.09,North,350,8.6,8.6,54,0.00,,---,0.00,VWS V14.01,2013-11-10 13:48:00,
2013-11-10 08:53:00,40.9,25.6,30.12,West,260,11.6,11.6,54,0.00,,---,0.00,VWS V14.01,2013-11-10 13:53:00,
2013-11-10 08:58:00,40.9,25.6,30.12,West,260,3.6,3.6,54,0.00,,---,0.00,VWS V14.01,2013-11-10 13:58:00,
2013-11-10 09:03:00,40.9,25.6,30.12,NW,305,7.9,7.9,54,0.00,,---,0.00,VWS V14.01,2013-11-10 14:03:00,
2013-11-10 09:08:00,41.1,25.8,30.12,West,260,3.6,3.6,54,0.00,,---,0.00,VWS V14.01,2013-11-10 14:08:00,
2013-11-10 09:13:00,41.1,25.8,30.12,West,260,4.0,12.9,54,0.00,,---,0.00,VWS V14.01,2013-11-10 14:13:00,
2013-11-10 09:18:00,41.1,25.8,30.12,WNW,282,4.6,7.9,54,0.00,,---,0.00,VWS V14.01,2013-11-10 14:18:00,
2013-11-10 09:23:00,41.1,25.8,30.15,West,260,5.6,5.6,54,0.00,,---,0.00,VWS V14.01,2013-11-10 14:23:00,
2013-11-10 09:28:00,41.3,25.9,30.15,South,170,12.6,13.9,54,0.00,,---,0.00,VWS V14.01,2013-11-10 14:28:00,
2013-11-10 09:33:00,41.3,26.4,30.15,North,350,6.3,6.3,55,0.00,,---,0.00,VWS V14.01,2013-11-10 14:33:00,
2013-11-10 09:38:00,41.3,25.9,30.15,NW,305,5.6,12.9,54,0.00,,---,0.00,VWS V14.01,2013-11-10 14:38:00,
2013-11-10 09:43:00,41.3,25.9,30.15,West,260,6.3,6.3,54,0.00,,---,0.00,VWS V14.01,2013-11-10 14:43:00,
2013-11-10 09:48:00,41.5,26.5,30.15,NW,305,4.3,4.3,55,0.00,,---,0.00,VWS V14.01,2013-11-10 14:48:00,
2013-11-10 09:53:00,41.5,26.5,30.15,West,260,16.2,16.2,55,0.00,,---,0.00,VWS V14.01,2013-11-10 14:53:00,
2013-11-10 09:58:00,41.5,26.5,30.15,NW,305,3.6,3.6,55,0.00,,---,0.00,VWS V14.01,2013-11-10 14:58:00,
2013-11-10 10:03:00,41.5,26.5,30.15,WNW,282,7.3,8.9,55,0.00,,---,0.00,VWS V14.01,2013-11-10 15:03:00,
2013-11-10 10:08:00,41.7,26.7,30.15,NW,305,3.6,4.6,55,0.00,,---,0.00,VWS V14.01,2013-11-10 15:08:00,
2013-11-10 10:13:00,41.7,26.7,30.15,North,350,10.9,10.9,55,0.00,,---,0.00,VWS V14.01,2013-11-10 15:13:00,
2013-11-10 10:18:00,41.7,26.7,30.15,NW,305,5.0,5.0,55,0.00,,---,0.00,VWS V14.01,2013-11-10 15:18:00,
2013-11-10 10:23:00,41.8,26.9,30.15,NW,305,7.9,10.6,55,0.00,,---,0.00,VWS V14.01,2013-11-10 15:23:00,
2013-11-10 10:28:00,41.8,26.9,30.15,North,350,5.6,9.3,55,0.00,,---,0.00,VWS V14.01,2013-11-10 15:28:00,
2013-11-10 10:33:00,41.8,26.9,30.15,NW,305,22.5,22.5,55,0.00,,---,0.00,VWS V14.01,2013-11-10 15:33:00,
2013-11-10 10:38:00,42.0,27.0,30.18,NW,305,4.6,5.6,55,0.00,,---,0.00,VWS V14.01,2013-11-10 15:38:00,
2013-11-10 10:43:00,42.2,26.8,30.18,NW,305,8.6,14.9,54,0.00,,---,0.00,VWS V14.01,2013-11-10 15:43:00,
2013-11-10 10:49:00,42.4,26.9,30.18,NW,305,6.0,6.0,54,0.00,,---,0.00,VWS V14.01,2013-11-10 15:49:00,
2013-11-10 10:54:00,42.4,26.9,30.18,SW,215,5.0,8.3,54,0.00,,---,0.00,VWS V14.01,2013-11-10 15:54:00,
2013-11-10 10:59:00,42.7,27.3,30.18,NW,305,7.0,7.0,54,0.00,,---,0.00,VWS V14.01,2013-11-10 15:59:00,
2013-11-10 11:04:00,42.7,27.3,30.18,West,260,11.6,11.6,54,0.00,,---,0.00,VWS V14.01,2013-11-10 16:04:00,
2013-11-10 11:09:00,42.7,27.3,30.18,NW,305,4.0,8.9,54,0.00,,---,0.00,VWS V14.01,2013-11-10 16:09:00,
2013-11-10 11:14:00,42.7,27.3,30.18,West,260,5.3,5.3,54,0.00,,---,0.00,VWS V14.01,2013-11-10 16:14:00,
2013-11-10 11:19:00,42.7,27.3,30.18,West,260,4.3,4.3,54,0.00,,---,0.00,VWS V14.01,2013-11-10 16:19:00,
2013-11-10 11:24:00,42.6,27.1,30.18,NW,305,4.3,10.6,54,0.00,,---,0.00,VWS V14.01,2013-11-10 16:24:00,
2013-11-10 11:29:00,42.7,27.3,30.18,North,350,5.6,5.6,54,0.00,,---,0.00,VWS V14.01,2013-11-10 16:29:00,
2013-11-10 11:34:00,42.9,27.4,30.18,NNW,328,7.9,11.9,54,0.00,,---,0.00,VWS V14.01,2013-11-10 16:34:00,
2013-11-10 11:39:00,42.9,27.4,30.18,WSW,238,10.9,10.9,54,0.00,,---,0.00,VWS V14.01,2013-11-10 16:39:00,
2013-11-10 11:44:00,43.1,27.6,30.18,West,260,8.9,11.3,54,0.00,,---,0.00,VWS V14.01,2013-11-10 16:44:00,
2013-11-10 11:49:00,42.9,27.4,30.18,NW,305,10.3,10.6,54,0.00,,---,0.00,VWS V14.01,2013-11-10 16:49:00,
2013-11-10 11:54:00,43.1,27.6,30.21,NW,305,6.3,6.3,54,0.00,,---,0.00,VWS V14.01,2013-11-10 16:54:00,
2013-11-10 11:59:00,43.1,27.6,30.21,North,350,8.9,9.3,54,0.00,,---,0.00,VWS V14.01,2013-11-10 16:59:00,
2013-11-10 12:04:00,43.3,27.8,30.21,North,350,3.0,6.0,54,0.00,,---,0.00,VWS V14.01,2013-11-10 17:04:00,
2013-11-10 12:09:00,43.8,28.3,30.21,NW,305,6.3,6.3,54,0.00,,---,0.00,VWS V14.01,2013-11-10 17:09:00,
2013-11-10 12:14:00,43.6,28.1,30.21,NW,305,5.3,5.3,54,0.00,,---,0.00,VWS V14.01,2013-11-10 17:14:00,
2013-11-10 12:19:00,43.8,28.3,30.21,NW,305,3.6,3.6,54,0.00,,---,0.00,VWS V14.01,2013-11-10 17:19:00,
2013-11-10 12:24:00,44.0,28.0,30.21,West,260,5.3,7.9,53,0.00,,---,0.00,VWS V14.01,2013-11-10 17:24:00,
2013-11-10 12:29:00,44.2,28.1,30.21,NW,305,3.6,5.3,53,0.00,,---,0.00,VWS V14.01,2013-11-10 17:29:00,
2013-11-10 12:34:00,45.1,29.0,30.21,WNW,282,3.6,5.6,53,0.00,,---,0.00,VWS V14.01,2013-11-10 17:34:00,
2013-11-10 12:39:00,44.9,28.8,30.21,NW,305,5.0,6.6,53,0.00,,---,0.00,VWS V14.01,2013-11-10 17:39:00,
2013-11-10 12:44:00,44.5,28.0,30.21,West,260,8.3,8.3,52,0.00,,---,0.00,VWS V14.01,2013-11-10 17:44:00,
2013-11-10 12:49:00,44.9,28.4,30.21,West,260,21.9,21.9,52,0.00,,---,0.00,VWS V14.01,2013-11-10 17:49:00,
2013-11-10 12:54:00,45.1,28.5,30.21,NW,305,7.0,7.0,52,0.00,,---,0.00,VWS V14.01,2013-11-10 17:54:00,
2013-11-10 12:59:00,45.1,28.5,30.21,NW,305,11.9,11.9,52,0.00,,---,0.00,VWS V14.01,2013-11-10 17:59:00,
2013-11-10 13:04:00,46.3,29.2,30.21,West,260,6.3,9.9,51,0.00,,---,0.00,VWS V14.01,2013-11-10 18:04:00,
2013-11-10 13:09:00,48.3,31.0,30.21,North,350,7.3,7.3,51,0.00,,---,0.00,VWS V14.01,2013-11-10 18:09:00,
2013-11-10 13:14:00,48.0,30.2,30.21,NW,305,9.6,9.6,50,0.00,,---,0.00,VWS V14.01,2013-11-10 18:14:00,
2013-11-10 13:19:00,47.8,30.1,30.21,NW,305,11.9,11.9,50,0.00,,---,0.00,VWS V14.01,2013-11-10 18:19:00,
2013-11-10 13:24:00,48.0,30.2,30.21,NW,305,8.6,8.6,50,0.00,,---,0.00,VWS V14.01,2013-11-10 18:24:00,
2013-11-10 13:29:00,46.7,29.1,30.21,North,350,11.9,11.9,50,0.00,,---,0.00,VWS V14.01,2013-11-10 18:29:00,
2013-11-10 13:34:00,46.0,28.4,30.21,NW,305,8.3,8.3,50,0.00,,---,0.00,VWS V14.01,2013-11-10 18:34:00,
2013-11-10 13:39:00,46.3,28.7,30.21,North,350,7.0,8.3,50,0.00,,---,0.00,VWS V14.01,2013-11-10 18:39:00,
2013-11-10 13:44:00,47.2,29.6,30.21,North,350,4.0,4.0,50,0.00,,---,0.00,VWS V14.01,2013-11-10 18:44:00,
2013-11-10 13:49:00,46.2,28.6,30.21,West,260,6.0,11.3,50,0.00,,---,0.00,VWS V14.01,2013-11-10 18:49:00,
2013-11-10 13:55:00,46.5,28.9,30.21,NE,35,9.3,9.3,50,0.00,,---,0.00,VWS V14.01,2013-11-10 18:55:00,
2013-11-10 14:00:00,45.8,28.2,30.21,North,350,6.0,8.6,50,0.00,,---,0.00,VWS V14.01,2013-11-10 19:00:00,
2013-11-10 14:05:00,45.4,27.9,30.21,SE,125,5.6,5.6,50,0.00,,---,0.00,VWS V14.01,2013-11-10 19:05:00,
2013-11-10 14:10:00,44.9,27.4,30.21,WSW,238,5.3,9.3,50,0.00,,---,0.00,VWS V14.01,2013-11-10 19:10:00,
2013-11-10 14:15:00,44.9,27.4,30.21,WNW,282,5.6,5.6,50,0.00,,---,0.00,VWS V14.01,2013-11-10 19:15:00,
2013-11-10 14:20:00,45.4,27.9,30.21,North,350,7.0,7.9,50,0.00,,---,0.00,VWS V14.01,2013-11-10 19:20:00,
2013-11-10 14:25:00,46.2,28.6,30.21,North,350,11.6,11.6,50,0.00,,---,0.00,VWS V14.01,2013-11-10 19:25:00,
2013-11-10 14:30:00,47.2,29.6,30.21,West,260,9.3,9.3,50,0.00,,---,0.00,VWS V14.01,2013-11-10 19:30:00,
2013-11-10 14:35:00,47.2,29.6,30.21,NW,305,6.6,6.6,50,0.00,,---,0.00,VWS V14.01,2013-11-10 19:35:00,
2013-11-10 14:40:00,47.4,29.7,30.21,NW,305,4.6,15.2,50,0.00,,---,0.00,VWS V14.01,2013-11-10 19:40:00,
2013-11-10 14:45:00,48.0,29.7,30.21,WNW,282,10.3,10.3,49,0.00,,---,0.00,VWS V14.01,2013-11-10 19:45:00,
2013-11-10 14:50:00,48.0,29.7,30.21,SW,215,1.7,1.7,49,0.00,,---,0.00,VWS V14.01,2013-11-10 19:50:00,
2013-11-10 14:55:00,47.8,29.6,30.21,NW,305,12.9,12.9,49,0.00,,---,0.00,VWS V14.01,2013-11-10 19:55:00,
2013-11-10 15:00:00,47.2,29.1,30.21,NW,305,6.0,6.0,49,0.00,,---,0.00,VWS V14.01,2013-11-10 20:00:00,
2013-11-10 15:05:00,47.1,28.9,30.21,NW,305,11.9,11.9,49,0.00,,---,0.00,VWS V14.01,2013-11-10 20:05:00,
2013-11-10 15:10:00,46.7,28.6,30.21,West,260,6.0,6.0,49,0.00,,---,0.00,VWS V14.01,2013-11-10 20:10:00,
2013-11-10 15:15:00,46.5,28.4,30.21,West,260,12.9,12.9,49,0.00,,---,0.00,VWS V14.01,2013-11-10 20:15:00,
2013-11-10 15:20:00,46.2,28.1,30.21,North,350,7.0,8.6,49,0.00,,---,0.00,VWS V14.01,2013-11-10 20:20:00,
2013-11-10 15:25:00,46.0,27.9,30.21,North,350,3.6,7.9,49,0.00,,---,0.00,VWS V14.01,2013-11-10 20:25:00,
2013-11-10 15:30:00,45.8,27.7,30.21,West,260,5.6,7.0,49,0.00,,---,0.00,VWS V14.01,2013-11-10 20:30:00,
2013-11-10 15:35:00,45.6,28.1,30.21,West,260,3.0,8.3,50,0.00,,---,0.00,VWS V14.01,2013-11-10 20:35:00,
2013-11-10 15:40:00,45.3,27.7,30.21,NE,35,4.3,4.3,50,0.00,,---,0.00,VWS V14.01,2013-11-10 20:40:00,
2013-11-10 15:46:00,45.1,27.6,30.21,NW,305,5.0,7.0,50,0.00,,---,0.00,VWS V14.01,2013-11-10 20:46:00,
2013-11-10 15:51:00,45.1,27.6,30.21,West,260,4.0,4.6,50,0.00,,---,0.00,VWS V14.01,2013-11-10 20:51:00,
2013-11-10 15:56:00,45.4,27.9,30.21,West,260,7.0,7.0,50,0.00,,---,0.00,VWS V14.01,2013-11-10 20:56:00,
2013-11-10 16:01:00,45.4,27.9,30.21,West,260,3.0,6.0,50,0.00,,---,0.00,VWS V14.01,2013-11-10 21:01:00,
2013-11-10 16:06:00,44.9,27.4,30.21,NW,305,6.0,6.0,50,0.00,,---,0.00,VWS V14.01,2013-11-10 21:06:00,
2013-11-10 16:11:00,44.7,27.2,30.21,North,350,7.3,7.3,50,0.00,,---,0.00,VWS V14.01,2013-11-10 21:11:00,
2013-11-10 16:16:00,44.5,27.1,30.21,North,350,4.6,4.6,50,0.00,,---,0.00,VWS V14.01,2013-11-10 21:16:00,
2013-11-10 16:21:00,44.4,26.9,30.21,West,260,3.3,5.3,50,0.00,,---,0.00,VWS V14.01,2013-11-10 21:21:00,
2013-11-10 16:26:00,44.4,26.9,30.21,NW,305,2.0,2.0,50,0.00,,---,0.00,VWS V14.01,2013-11-10 21:26:00,
2013-11-10 16:31:00,44.5,27.1,30.21,WNW,282,3.6,3.6,50,0.00,,---,0.00,VWS V14.01,2013-11-10 21:31:00,
2013-11-10 16:36:00,44.4,26.9,30.21,West,260,5.3,7.9,50,0.00,,---,0.00,VWS V14.01,2013-11-10 21:36:00,
2013-11-10 16:41:00,44.4,26.9,30.24,NW,305,5.6,8.6,50,0.00,,---,0.00,VWS V14.01,2013-11-10 21:41:00,
2013-11-10 16:47:00,44.0,26.6,30.24,West,260,5.3,5.3,50,0.00,,---,0.00,VWS V14.01,2013-11-10 21:47:00,
2013-11-10 16:52:00,43.6,26.7,30.24,WNW,282,6.0,11.6,51,0.00,,---,0.00,VWS V14.01,2013-11-10 21:52:00,
2013-11-10 16:57:00,43.1,26.2,30.24,West,260,8.9,8.9,51,0.00,,---,0.00,VWS V14.01,2013-11-10 21:57:00,
2013-11-10 17:02:00,42.9,26.0,30.24,West,260,6.0,6.0,51,0.00,,---,0.00,VWS V14.01,2013-11-10 22:02:00,
2013-11-10 17:07:00,42.6,25.7,30.24,West,260,4.0,7.3,51,0.00,,---,0.00,VWS V14.01,2013-11-10 22:07:00,
2013-11-10 17:12:00,42.4,25.5,30.24,NW,305,11.3,11.3,51,0.00,,---,0.00,VWS V14.01,2013-11-10 22:12:00,
2013-11-10 17:17:00,42.0,25.7,30.24,NW,305,5.6,6.0,52,0.00,,---,0.00,VWS V14.01,2013-11-10 22:17:00,
2013-11-10 17:22:00,41.7,25.4,30.24,West,260,5.3,5.3,52,0.00,,---,0.00,VWS V14.01,2013-11-10 22:22:00,
2013-11-10 17:27:00,41.3,25.0,30.24,West,260,8.9,8.9,52,0.00,,---,0.00,VWS V14.01,2013-11-10 22:27:00,
2013-11-10 17:32:00,40.9,24.7,30.24,West,260,3.6,6.3,52,0.00,,---,0.00,VWS V14.01,2013-11-10 22:32:00,
2013-11-10 17:37:00,40.8,24.5,30.24,NW,305,4.3,4.3,52,0.00,,---,0.00,VWS V14.01,2013-11-10 22:37:00,
2013-11-10 17:42:00,40.6,24.8,30.24,SW,215,4.6,4.6,53,0.00,,---,0.00,VWS V14.01,2013-11-10 22:42:00,
2013-11-10 17:47:00,40.4,24.6,30.24,West,260,4.3,7.3,53,0.00,,---,0.00,VWS V14.01,2013-11-10 22:47:00,
2013-11-10 17:52:00,40.0,24.3,30.24,West,260,4.3,4.3,53,0.00,,---,0.00,VWS V14.01,2013-11-10 22:52:00,
2013-11-10 17:57:00,39.7,24.4,30.24,SW,215,2.0,4.6,54,0.00,,---,0.00,VWS V14.01,2013-11-10 22:57:00,
2013-11-10 18:02:00,39.3,24.1,30.24,NW,305,2.3,4.0,54,0.00,,---,0.00,VWS V14.01,2013-11-10 23:02:00,
2013-11-10 18:07:00,39.0,23.7,30.24,SW,215,3.6,3.6,54,0.00,,---,0.00,VWS V14.01,2013-11-10 23:07:00,
2013-11-10 18:12:00,38.8,23.6,30.24,West,260,1.7,2.0,54,0.00,,---,0.00,VWS V14.01,2013-11-10 23:12:00,
2013-11-10 18:17:00,38.6,23.8,30.24,West,260,4.6,4.6,55,0.00,,---,0.00,VWS V14.01,2013-11-10 23:17:00,
2013-11-10 18:22:00,38.2,23.5,30.24,West,260,2.3,2.3,55,0.00,,---,0.00,VWS V14.01,2013-11-10 23:22:00,
2013-11-10 18:27:00,37.9,23.6,30.24,SW,215,0.0,0.0,56,0.00,,---,0.00,VWS V14.01,2013-11-10 23:27:00,
2013-11-10 18:32:00,37.5,23.3,30.24,SW,215,0.0,0.0,56,0.00,,---,0.00,VWS V14.01,2013-11-10 23:32:00,
2013-11-10 18:37:00,37.3,23.1,30.24,SW,215,0.0,0.0,56,0.00,,---,0.00,VWS V14.01,2013-11-10 23:37:00,
2013-11-10 18:42:00,37.0,22.8,30.24,South,170,0.0,0.0,56,0.00,,---,0.00,VWS V14.01,2013-11-10 23:42:00,
2013-11-10 18:47:00,36.6,22.8,30.24,SE,125,0.0,0.0,57,0.00,,---,0.00,VWS V14.01,2013-11-10 23:47:00,
2013-11-10 18:52:00,36.4,22.7,30.24,South,170,1.3,1.7,57,0.00,,---,0.00,VWS V14.01,2013-11-10 23:52:00,
2013-11-10 18:57:00,36.3,22.5,30.24,SE,125,0.0,0.0,57,0.00,,---,0.00,VWS V14.01,2013-11-10 23:57:00,
2013-11-10 19:02:00,35.9,22.2,30.24,South,170,0.0,0.0,57,0.00,,---,0.00,VWS V14.01,2013-11-11 00:02:00,
2013-11-10 19:07:00,35.7,22.4,30.24,South,170,0.0,0.0,58,0.00,,---,0.00,VWS V14.01,2013-11-11 00:07:00,
2013-11-10 19:12:00,35.5,22.2,30.24,South,170,0.0,0.0,58,0.00,,---,0.00,VWS V14.01,2013-11-11 00:12:00,
2013-11-10 19:17:00,35.2,21.9,30.24,South,170,0.0,0.0,58,0.00,,---,0.00,VWS V14.01,2013-11-11 00:17:00,
2013-11-10 19:22:00,35.0,21.7,30.24,South,170,0.0,0.0,58,0.00,,---,0.00,VWS V14.01,2013-11-11 00:22:00,
2013-11-10 19:27:00,34.8,22.0,30.24,South,170,0.0,0.0,59,0.00,,---,0.00,VWS V14.01,2013-11-11 00:27:00,
2013-11-10 19:32:00,34.6,22.2,30.24,South,170,0.0,0.0,60,0.00,,---,0.00,VWS V14.01,2013-11-11 00:32:00,
2013-11-10 19:37:00,34.5,22.4,30.24,South,170,0.0,0.0,61,0.00,,---,0.00,VWS V14.01,2013-11-11 00:37:00,
2013-11-10 19:42:00,34.8,23.1,30.24,West,260,1.3,1.7,62,0.00,,---,0.00,VWS V14.01,2013-11-11 00:42:00,
2013-11-10 19:48:00,34.8,23.5,30.24,SW,215,0.0,0.0,63,0.00,,---,0.00,VWS V14.01,2013-11-11 00:48:00,
2013-11-10 19:53:00,35.0,23.3,30.24,SW,215,1.3,1.3,62,0.00,,---,0.00,VWS V14.01,2013-11-11 00:53:00,
2013-11-10 19:58:00,35.0,23.7,30.24,West,260,0.0,0.0,63,0.00,,---,0.00,VWS V14.01,2013-11-11 00:58:00,
2013-11-10 20:03:00,35.2,23.9,30.24,SW,215,0.0,1.3,63,0.00,,---,0.00,VWS V14.01,2013-11-11 01:03:00,
2013-11-10 20:08:00,35.2,24.2,30.24,SSE,148,1.3,2.3,64,0.00,,---,0.00,VWS V14.01,2013-11-11 01:08:00,
2013-11-10 20:13:00,35.4,24.0,30.24,South,170,0.0,2.0,63,0.00,,---,0.00,VWS V14.01,2013-11-11 01:13:00,
2013-11-10 20:18:00,35.5,24.6,30.24,South,170,0.0,0.0,64,0.00,,---,0.00,VWS V14.01,2013-11-11 01:18:00,
2013-11-10 20:23:00,35.7,25.1,30.24,South,170,2.0,2.0,65,0.00,,---,0.00,VWS V14.01,2013-11-11 01:23:00,
2013-11-10 20:28:00,35.7,25.1,30.21,South,170,0.0,1.7,65,0.00,,---,0.00,VWS V14.01,2013-11-11 01:28:00,
2013-11-10 20:33:00,35.9,25.3,30.21,South,170,2.0,2.0,65,0.00,,---,0.00,VWS V14.01,2013-11-11 01:33:00,
2013-11-10 20:38:00,35.9,24.9,30.21,South,170,0.0,0.0,64,0.00,,---,0.00,VWS V14.01,2013-11-11 01:38:00,
2013-11-10 20:43:00,36.1,25.5,30.21,SW,215,0.0,3.0,65,0.00,,---,0.00,VWS V14.01,2013-11-11 01:43:00,
2013-11-10 20:48:00,36.1,25.5,30.21,SW,215,0.0,0.0,65,0.00,,---,0.00,VWS V14.01,2013-11-11 01:48:00,
2013-11-10 20:53:00,36.3,25.6,30.21,SW,215,0.0,0.0,65,0.00,,---,0.00,VWS V14.01,2013-11-11 01:53:00,
2013-11-10 20:58:00,36.3,25.6,30.21,South,170,0.0,0.0,65,0.00,,---,0.00,VWS V14.01,2013-11-11 01:58:00,
2013-11-10 21:03:00,36.1,25.5,30.21,South,170,2.3,2.3,65,0.00,,---,0.00,VWS V14.01,2013-11-11 02:03:00,
2013-11-10 21:08:00,36.1,25.8,30.24,South,170,0.0,2.0,66,0.00,,---,0.00,VWS V14.01,2013-11-11 02:08:00,
2013-11-10 21:13:00,36.1,25.8,30.24,South,170,0.0,0.0,66,0.00,,---,0.00,VWS V14.01,2013-11-11 02:13:00,
2013-11-10 21:18:00,36.1,25.8,30.24,South,170,0.0,0.0,66,0.00,,---,0.00,VWS V14.01,2013-11-11 02:18:00,
2013-11-10 21:23:00,36.1,25.8,30.21,South,170,0.0,0.0,66,0.00,,---,0.00,VWS V14.01,2013-11-11 02:23:00,
2013-11-10 21:28:00,36.1,25.5,30.21,South,170,0.0,0.0,65,0.00,,---,0.00,VWS V14.01,2013-11-11 02:28:00,
2013-11-10 21:33:00,36.1,25.5,30.21,South,170,0.0,0.0,65,0.00,,---,0.00,VWS V14.01,2013-11-11 02:33:00,
2013-11-10 21:38:00,36.1,25.8,30.21,South,170,0.0,0.0,66,0.00,,---,0.00,VWS V14.01,2013-11-11 02:38:00,
2013-11-10 21:43:00,36.1,25.8,30.21,South,170,2.0,2.0,66,0.00,,---,0.00,VWS V14.01,2013-11-11 02:43:00,
2013-11-10 21:48:00,36.1,25.8,30.21,SE,125,2.3,2.3,66,0.00,,---,0.00,VWS V14.01,2013-11-11 02:48:00,
2013-11-10 21:53:00,36.1,25.5,30.21,South,170,1.3,2.0,65,0.00,,---,0.00,VWS V14.01,2013-11-11 02:53:00,
2013-11-10 21:58:00,36.1,25.5,30.21,SW,215,1.7,1.7,65,0.00,,---,0.00,VWS V14.01,2013-11-11 02:58:00,
2013-11-10 22:03:00,36.1,25.8,30.21,SW,215,2.0,2.0,66,0.00,,---,0.00,VWS V14.01,2013-11-11 03:03:00,
2013-11-10 22:08:00,36.1,26.2,30.21,South,170,3.6,3.6,67,0.00,,---,0.00,VWS V14.01,2013-11-11 03:08:00,
2013-11-10 22:13:00,36.1,25.8,30.21,SW,215,4.0,4.0,66,0.00,,---,0.00,VWS V14.01,2013-11-11 03:13:00,
2013-11-10 22:18:00,36.1,25.8,30.21,SW,215,3.0,3.0,66,0.00,,---,0.00,VWS V14.01,2013-11-11 03:18:00,
2013-11-10 22:23:00,36.3,26.7,30.21,SW,215,4.3,4.3,68,0.00,,---,0.00,VWS V14.01,2013-11-11 03:23:00,
2013-11-10 22:28:00,36.4,26.5,30.21,South,170,2.3,2.3,67,0.00,,---,0.00,VWS V14.01,2013-11-11 03:28:00,
2013-11-10 22:33:00,36.6,26.4,30.21,SW,215,3.6,5.6,66,0.00,,---,0.00,VWS V14.01,2013-11-11 03:33:00,
2013-11-10 22:38:00,36.8,26.5,30.21,SW,215,3.3,3.3,66,0.00,,---,0.00,VWS V14.01,2013-11-11 03:38:00,
2013-11-10 22:44:00,37.0,26.7,30.21,SW,215,3.3,3.3,66,0.00,,---,0.00,VWS V14.01,2013-11-11 03:44:00,
2013-11-10 22:49:00,37.2,26.9,30.21,West,260,2.0,9.3,66,0.00,,---,0.00,VWS V14.01,2013-11-11 03:49:00,
2013-11-10 22:54:00,37.2,26.9,30.21,SW,215,4.3,7.0,66,0.00,,---,0.00,VWS V14.01,2013-11-11 03:54:00,
2013-11-10 22:59:00,37.3,27.0,30.21,South,170,3.6,5.0,66,0.00,,---,0.00,VWS V14.01,2013-11-11 03:59:00,
2013-11-10 23:04:00,37.3,27.4,30.21,South,170,6.0,6.0,67,0.00,,---,0.00,VWS V14.01,2013-11-11 04:04:00,
2013-11-10 23:09:00,37.3,27.4,30.21,SW,215,4.0,4.0,67,0.00,,---,0.00,VWS V14.01,2013-11-11 04:09:00,
2013-11-10 23:14:00,37.3,27.0,30.21,South,170,4.0,8.6,66,0.00,,---,0.00,VWS V14.01,2013-11-11 04:14:00,
2013-11-10 23:19:00,37.5,27.2,30.21,West,260,4.0,4.3,66,0.00,,---,0.00,VWS V14.01,2013-11-11 04:19:00,
2013-11-10 23:24:00,37.5,27.2,30.18,West,260,3.0,6.3,66,0.00,,---,0.00,VWS V14.01,2013-11-11 04:24:00,
2013-11-10 23:29:00,37.5,27.2,30.18,SW,215,4.3,5.3,66,0.00,,---,0.00,VWS V14.01,2013-11-11 04:29:00,
2013-11-10 23:34:00,37.5,27.2,30.18,SW,215,3.6,4.6,66,0.00,,---,0.00,VWS V14.01,2013-11-11 04:34:00,
2013-11-10 23:39:00,37.5,27.2,30.18,SW,215,3.6,3.6,66,0.00,,---,0.00,VWS V14.01,2013-11-11 04:39:00,
2013-11-10 23:44:00,37.5,27.2,30.18,SW,215,3.6,3.6,66,0.00,,---,0.00,VWS V14.01,2013-11-11 04:44:00,
2013-11-10 23:49:00,37.5,27.2,30.18,South,170,3.0,3.0,66,0.00,,---,0.00,VWS V14.01,2013-11-11 04:49:00,
2013-11-10 23:54:00,37.5,27.2,30.18,WSW,238,2.3,3.6,66,0.00,,---,0.00,VWS V14.01,2013-11-11 04:54:00,
2013-11-10 23:59:00,37.5,27.2,30.18,SW,215,4.3,4.3,66,0.00,,---,0.00,VWS V14.01,2013-11-11 04:59:00,